{"data":{"norad_id":58508,"epoch":"2026-09-19T21:59:50.002944Z","epoch_age_seconds":197130,"freshness":"STALE","line1":"1 58508U 23191A   26262.91655096  .00000475  00000+0  26784-4 0  9997","line2":"2 58508  43.0033  93.5443 0001002 270.5579  89.5157 15.27580812155091","mean_motion":15.27580812,"eccentricity":0.0001002,"inclination_deg":43.0033,"raan_deg":93.5443,"arg_perigee_deg":270.5579,"mean_anomaly_deg":89.5157,"bstar":2.6784e-5,"rev_number":15509,"period_min":94.266698605272,"perigee_km":482.35917401742,"apogee_km":483.73415522381,"semimajor_km":6861.1836646206,"source":"CELESTRAK","updated_at":"2026-09-21T09:00:33.906345Z"}}